Regional Weather Roundup
Issued by NWS Northern Indiana

Home | Current Version | Previous Version | Text Only | Print | Product List | Glossary Off
Versions: 1 2 3 4 5 6 7 8 9 10 11 12 13 14 15 16 17 18 19 20 21 22 23 24 25 26 27 28 29 30 31 32 33 34 35 36 37 38 39 40 41 42 43 44 45 46 47 48 49 50

000
ASUS43 KIWX 162300
RWRIWX

KIWX WEATHER ROUNDUP
NATIONAL WEATHER SERVICE NORTHERN INDIANA
600 PM EST MON JAN 16 2017

NOTE: "FAIR" INDICATES FEW OR NO CLOUDS BELOW 12,000 FEET WITH NO
SIGNIFICANT WEATHER AND/OR OBSTRUCTIONS TO VISIBILITY.

* THESE STATIONS ARE NOT UNDER NWS QUALITY CONTROL. THEY ALSO MAY NOT
  REPORT WEATHER SUCH AS PRECIPITATION OR FOG.

INZ001>027-170000-
NORTHERN INDIANA

CITY           SKY/WX    TMP DP  RH WIND       PRES   REMARKS
GARY*          LGT RAIN  37  37 100 E6        30.07F VSB 3/4
SOUTH BEND     LGT RAIN  35  35 100 SE10      30.09F VSB 1/2 WCI  27
ELKHART*       DRIZZLE   36  36 100 SE9       30.10F
GOSHEN         LGT RAIN  35  33  92 SE9       30.11F FOG     WCI  28
FORT WAYNE     FOG       36  34  92 E8        30.13S VSB 1

$$
INZ028>050-170000-
CENTRAL INDIANA

CITY           SKY/WX    TMP DP  RH WIND       PRES   REMARKS
LAFAYETTE      CLOUDY    44  44 100 E8        30.05F FOG
KOKOMO*        CLOUDY    40  40 100 E8        30.09F FOG
MUNCIE*        CLOUDY    49  46  90 S6        30.11F FOG
INDIANAPOLIS   LGT RAIN  47  46  97 SE9       30.09F VSB 1

$$
MIZ043>046-050>051-056>058-064>065-071>073-077>080-170000-
SOUTHWEST LOWER MICHIGAN

CITY           SKY/WX    TMP DP  RH WIND       PRES   REMARKS
BATTLE CREEK   LGT RAIN  34  33  96 E7        30.13F FOG     WCI  28
BENTON HARBOR  LGT RAIN  37  34  89 E9        30.09F FOG
COLDWATER*     LGT RAIN  34  34 100 SE10      30.13F WCI  26
HILLSDALE*     MIX PCPN  32  32 100 E8        30.14S WCI  25
HOLLAND        LGT RAIN  33  31  92 E12       30.12F WCI  24
GRAND RAPIDS   FRZ RAIN  32  29  88 E13       30.15F FOG     WCI  22
KALAMAZOO      LGT RAIN  36  33  89 E7        30.12F FOG
STURGIS*       MIX PCPN  34  34  99 SE8       30.11F WCI  27
THREE RIVERS*  LGT RAIN  35  34  99 SE7       30.12F WCI  29

$$
OHZ001>008-015>018-024>025-170000-
NORTHWEST OHIO

CITY           SKY/WX    TMP DP  RH WIND       PRES   REMARKS
DEFIANCE       FOG       36  33  89 E7        30.17F VSB 1
FINDLAY        CLOUDY    38  34  85 E8        30.17S FOG
TOLEDO EXPRESS CLOUDY    34  31  88 E7        30.18F WCI  28
TOLEDO METCALF CLOUDY    35  32  88 E6        30.20F FOG     WCI  30
LIMA           CLOUDY    38  37  97 E9        30.14F FOG

$$
AND FOR LAKE MICHIGAN COASTAL AND OPEN LAKE BUOY OBSERVATIONS

STATION/POSITION TEMP    WIND        PRES    VSBY  WAVE
                 AIR SEA DIR/SP/G                  HT/PER
                 (F)     (DEG/KT/KT) (MB)    (MI)  (FT/S)
CALUMET HARBOR    33      80/  5/  7 1017.4F
MICHIGAN CITY     36     100/  4/  6   N/A
BURNS HARBOR      38     110/  9/ 11 1018.3F

$$
&&



USA.gov is the U.S. government's official web portal to all federal, state and local government web resources and services.